Regional Weather Roundup
Issued by NWS Cleveland, OH

Home | Current Version | Previous Version | Text Only | Print | Product List | Glossary Off
Versions: 1 2 3 4 5 6 7 8 9 10 11 12 13 14 15 16 17 18 19 20 21 22 23 24 25 26 27 28 29 30 31 32 33 34 35 36 37 38 39 40 41 42 43 44 45 46 47 48 49 50

000
ASUS41 KCLE 012200
RWRCLE
OHIO REGIONAL WEATHER ROUNDUP
NATIONAL WEATHER SERVICE WILMINGTON, OH
600 PM EDT FRI AUG 01 2014

NOTE: "FAIR" INDICATES FEW OR NO CLOUDS BELOW 12,000 FEET WITH NO
SIGNIFICANT WEATHER AND/OR OBSTRUCTIONS TO VISIBILITY.

OHZ001>008-015>018-024>027-034-035-043-044-012300-
   NORTHWEST OHIO

CITY           SKY/WX    TMP DP  RH WIND       PRES   REMARKS
DEFIANCE       NOT AVBL
FINDLAY        NOT AVBL
TOLEDO EXPRESS MOSUNNY   80  59  48 N5        30.07S
TOLEDO METCALF NOT AVBL
LIMA           MOSUNNY   82  57  42 VRB3      30.07F
$$

OHZ009>014-019>023-028>033-038-089-012300-
   NORTHEAST OHIO

CITY           SKY/WX    TMP DP  RH WIND       PRES   REMARKS
CLE-HOPKINS    PTSUNNY   79  62  56 N8        30.10F
CLE-LAKEFRONT  SUNNY     78  65  63 NE6       30.07F
CUY CO. ARPT   MOSUNNY   81  64  57 NE9       30.10F
LORAIN-ELYRIA  NOT AVBL
ASHTABULA      NOT AVBL
AKRON-CANTON   MOSUNNY   80  59  48 NE5       30.10S
WOOSTER        NOT AVBL
MANSFIELD      CLOUDY    67  62  84 NW7       30.12R
YOUNGSTOWN     PTSUNNY   77  64  64 CALM      30.10S
$$

OHZ042-051>053-060>062-070>072-077>081-012300-
  SOUTHWEST OHIO

CITY           SKY/WX    TMP DP  RH WIND       PRES   REMARKS
CINC-COVINGTON MOSUNNY   84  57  39 NE3       30.05F
CINC-LUNKEN    NOT AVBL
HAMILTON       NOT AVBL
DAYTON         NOT AVBL
WRIGHT-PAT AFB NOT AVBL
DAYTON GENERAL NOT AVBL
WILMINGTON     NOT AVBL
$$

OHZ036-037-039>041-045>050-054>059-063>069-073>076-082>088-012300-
  CENTRAL AND SOUTHEAST OHIO

CITY           SKY/WX    TMP DP  RH WIND       PRES   REMARKS
COLUMBUS       MOSUNNY   85  57  38 E5        30.05F
OSU AIRPORT    NOT AVBL
BOLTON FIELD   MOSUNNY   82  63  51 N5        30.07F
RICKENBACK AFB NOT AVBL
NEWARK         NOT AVBL
MARION         NOT AVBL
LANCASTER      NOT AVBL
ZANESVILLE     NOT AVBL
NEW PHILLY     NOT AVBL
$$



USA.gov is the U.S. government's official web portal to all federal, state and local government web resources and services.